[TLELIST] Archives

 

Current TLEs

October 29th 2006 PDT

HST 1 20580U 90037B 06301.22678017 .00000457 00000-0 22714-4 0 7283 2 20580 028.4696 262.5777 0004008 156.8589 203.2178 15.00117464705095 ISS (ZARYA) 1 25544U 98067A 06302.50810185 .00022026 00000-0 13334-3 0 9549 2 25544 051.6342 215.3409 0012316 149.8405 210.7287 15.77416203454355 CXO 1 25867U 99040B 06299.95833333 +.00000503 +00000-0 +00000-0 0 09935 2 25867 060.4908 094.2197 5930348 288.2863 357.9157 00.37804131001373 ____________________________________________________________________ These 2-Line ...Continue Reading

Current TLEs

October 28th 2006 PDT

HST 1 20580U 90037B 06301.22678017 .00000457 00000-0 22714-4 0 7283 2 20580 028.4696 262.5777 0004008 156.8589 203.2178 15.00117464705095 ISS (ZARYA) 1 25544U 98067A 06301.32077704 .00016537 00000-0 10140-3 0 9496 2 25544 051.6340 221.4733 0012658 145.2836 308.3995 15.77360347454164 CXO 1 25867U 99040B 06299.95833333 +.00000503 +00000-0 +00000-0 0 09935 2 25867 060.4908 094.2197 5930348 288.2863 357.9157 00.37804131001373 ____________________________________________________________________ These 2-Line ...Continue Reading

Current TLEs

October 27th 2006 PDT

HST 1 20580U 90037B 06298.36596241 +.00000446 +00000-0 +21886-4 0 07312 2 20580 028.4698 281.2264 0003888 129.4972 230.5962 15.00115749704663 ISS (ZARYA) 1 25544U 98067A 06300.44375000 .00033617 00000-0 20178-3 0 9432 2 25544 051.6340 225.9999 0012397 141.4685 008.7018 15.77342491454029 CXO 1 25867U 99040B 06299.95833333 +.00000503 +00000-0 +00000-0 0 09935 2 25867 060.4908 094.2197 5930348 288.2863 357.9157 00.37804131001373 ____________________________________________________________________ These 2-Line ...Continue Reading

Current TLEs

October 27th 2006 PDT

HST 1 20580U 90037B 06299.36392292 .00000459 00000-0 22878-4 0 7274 2 20580 028.4698 274.7211 0003993 138.0742 222.0155 15.00116420704814 ISS (ZARYA) 1 25544U 98067A 06299.30111487 .00018284 00000-0 11213-3 0 9333 2 25544 051.6344 231.8930 0012635 137.6567 359.9187 15.77266671453847 CXO 1 25867U 99040B 06297.33333333 +.00000492 +00000-0 +00000-0 0 09926 2 25867 060.4755 094.2572 5926122 288.3582 000.5147 00.37804317001369 ____________________________________________________________________ These 2-Line ...Continue Reading

Current TLEs

October 25th 2006 PDT

HST 1 20580U 90037B 06298.23290108 .00000440 00000-0 21456-4 0 7262 2 20580 028.4698 282.0942 0003872 128.3684 231.7252 15.00115628704645 ISS (ZARYA) 1 25544U 98067A 06298.48020833 .00017459 00000-0 10741-3 0 9254 2 25544 051.6361 236.1315 0012720 134.1721 019.0564 15.77234495453718 CXO 1 25867U 99040B 06297.33333333 +.00000492 +00000-0 +00000-0 0 09926 2 25867 060.4755 094.2572 5926122 288.3582 000.5147 00.37804317001369 ____________________________________________________________________ These 2-Line ...Continue Reading

Current TLEs

October 24th 2006 PDT

HST 1 20580U 90037B 06296.43657124 .00000425 00000-0 20255-4 0 7255 2 20580 028.4699 293.8042 0003764 110.5771 249.5221 15.00114499704375 ISS (ZARYA) 1 25544U 98067A 06297.45797574 .00017353 00000-0 10695-3 0 9175 2 25544 051.6346 241.4066 0012811 130.5873 334.5010 15.77197120453558 CXO 1 25867U 99040B 06294.66666667 +.00000456 +00000-0 +00000-0 0 09917 2 25867 060.4581 094.2928 5923118 288.4328 357.4216 00.37805187001358 ____________________________________________________________________ These 2-Line ...Continue Reading

Current TLEs

October 23rd 2006 PDT

HST 1 20580U 90037B 06294.44064713 +.00000468 +00000-0 +23618-4 0 07411 2 20580 028.4694 306.8188 0003685 088.3756 271.7254 15.00113831704072 ISS (ZARYA) 1 25544U 98067A 06296.45023148 .00021813 00000-0 13352-3 0 9127 2 25544 051.6339 246.6042 0012958 128.1890 011.2173 15.77162573453390 CXO 1 25867U 99040B 06294.66666667 +.00000456 +00000-0 +00000-0 0 09917 2 25867 060.4581 094.2928 5923118 288.4328 357.4216 00.37805187001358 ____________________________________________________________________ These 2-Line ...Continue Reading

Current TLEs

October 22nd 2006 PDT

HST 1 20580U 90037B 06295.23901664 .00000417 00000-0 19667-4 0 7248 2 20580 028.4699 301.6120 0003592 099.2435 260.8558 15.00113767704195 ISS (ZARYA) 1 25544U 98067A 06295.12744213 .00021100 00000-0 12965-3 0 9064 2 25544 051.6325 253.4309 0012971 123.3467 060.6025 15.77101493453184 CXO 1 25867U 99040B 06294.66666667 +.00000456 +00000-0 +00000-0 0 09917 2 25867 060.4581 094.2928 5923118 288.4328 357.4216 00.37805187001358 ____________________________________________________________________ These 2-Line ...Continue Reading

Current TLEs

October 21st 2006 PDT

HST 1 20580U 90037B 06293.44268412 .00000477 00000-0 24343-4 0 7238 2 20580 028.4696 313.3248 0003635 078.0138 282.0862 15.00113309703922 ISS (ZARYA) 1 25544U 98067A 06294.47907604 .00014458 00000-0 90339-4 0 9022 2 25544 051.6332 256.7738 0013062 120.4953 339.8459 15.77061839453084 CXO 1 25867U 99040B 06292.00000000 +.00000397 +00000-0 +00000-0 0 09909 2 25867 060.4480 094.3354 5921314 288.5009 354.3313 00.37805311001345 ____________________________________________________________________ These 2-Line ...Continue Reading

Current TLEs

October 20th 2006 PDT

HST 1 20580U 90037B 06292.51125109 +.00000482 +00000-0 +24704-4 0 07350 2 20580 028.4698 319.3964 0003556 068.4335 291.6632 15.00112783703789 ISS (ZARYA) 1 25544U 98067A 06293.46431870 .00013144 00000-0 82648-4 0 8953 2 25544 051.6342 262.0095 0012879 116.8093 338.4765 15.77027343452929 CXO 1 25867U 99040B 06292.00000000 +.00000397 +00000-0 +00000-0 0 09909 2 25867 060.4480 094.3354 5921314 288.5009 354.3313 00.37805311001345 ____________________________________________________________________ These 2-Line ...Continue Reading
  • This mailing list is a public mailing list - anyone may join or leave, at any time.
  • This mailing list is announce-only.

International Space Station (ISS) / Hubble Space Telescope (HST) / Chandra X-Ray Observatory Orbital Data via EMAIL

Privacy Policy:

Private list